Date,TemperatureHighF,TemperatureAvgF,TemperatureLowF,DewpointHighF,DewpointAvgF,DewpointLowF,HumidityHigh,HumidityAvg,HumidityLow,PressureMaxIn,PressureMinIn,WindSpeedMaxMPH,WindSpeedAvgMPH,GustSpeedMaxMPH,PrecipitationSumIn
2013-1-1,52.5,43.6,35.8,39.2,35.6,30.7,94,78,50,30.39,30.33,6,1,6,0.00
2013-1-2,56.3,42.8,31.6,37.8,33.6,28.4,95,74,46,30.36,30.24,4,0,5,0.00
2013-1-3,56.1,41.2,32.2,39.7,34.2,28.6,95,80,52,30.36,30.27,5,0,5,0.00
2013-1-4,57.2,43.9,34.9,41.5,35.9,32.2,97,78,48,30.39,30.27,3,0,4,0.00
2013-1-5,55.6,47.2,37.0,48.4,42.8,33.1,96,88,73,30.36,30.18,3,0,3,0.05
2013-1-6,52.2,47.4,39.6,48.4,44.4,37.9,98,92,77,30.30,30.15,5,0,6,0.12
2013-1-7,58.6,46.0,36.7,48.6,42.5,35.8,98,90,71,30.36,30.27,2,0,5,0.00
2013-1-8,60.6,48.1,39.6,51.1,43.4,38.5,98,87,63,30.33,30.21,4,0,5,0.00
2013-1-9,57.2,46.9,39.7,50.0,42.9,38.1,98,89,74,30.24,30.12,8,1,11,0.04
2013-1-10,53.4,44.8,37.4,41.5,35.9,32.4,98,75,53,30.30,30.18,10,2,14,0.00
2013-1-11,53.4,43.3,34.0,38.8,34.9,29.8,93,77,55,30.36,30.24,7,1,10,0.00
2013-1-12,49.6,40.4,33.3,37.4,29.7,25.2,96,70,37,30.36,30.24,4,0,6,0.00
2013-1-13,50.4,37.8,29.3,30.7,26.2,24.3,88,68,37,30.39,30.27,5,1,8,0.00
2013-1-14,50.7,37.9,28.9,27.3,23.5,20.7,80,60,34,30.50,30.33,5,0,6,0.00
2013-1-15,54.5,40.4,30.6,31.8,27.5,23.4,83,64,37,30.59,30.50,5,0,5,0.00
2013-1-16,56.3,41.1,31.1,35.4,30.1,25.9,88,70,40,30.53,30.36,4,0,4,0.00
2013-1-17,61.3,43.7,32.4,40.5,33.2,28.0,93,71,42,30.36,30.24,4,0,4,0.00
2013-1-18,62.6,45.7,34.0,41.2,35.1,29.8,94,71,40,30.33,30.24,3,0,4,0.00
2013-1-19,62.6,46.1,33.4,42.1,35.3,28.8,93,70,42,30.36,30.24,3,0,4,0.00
2013-1-20,63.9,46.0,34.0,41.9,34.8,29.7,95,69,35,30.33,30.21,4,0,5,0.00
2013-1-21,63.1,45.5,33.1,41.2,34.4,27.9,93,69,38,30.27,30.18,4,0,7,0.00
2013-1-22,61.0,47.1,35.1,41.7,37.3,31.1,93,73,44,30.21,30.09,4,0,4,0.00
2013-1-23,54.3,50.0,46.4,51.1,45.4,39.6,97,87,79,30.18,30.06,0,0,0,0.09
2013-1-26,58.8,52.7,43.7,43.2,40.1,37.6,83,65,52,30.21,30.12,10,3,10,0.00
2013-1-27,56.7,47.9,40.1,41.2,37.7,34.5,92,72,39,30.27,30.18,6,2,8,0.00
2013-1-28,58.1,49.0,40.6,42.6,39.4,34.9,92,73,55,30.39,30.27,7,2,8,0.00
2013-1-29,60.3,48.4,40.5,44.8,40.1,36.0,94,77,55,30.48,30.36,6,1,8,0.00
2013-1-30,66.7,50.4,39.4,49.1,40.5,36.3,98,72,40,30.45,30.36,4,0,5,0.00
2013-1-31,64.6,49.2,37.6,46.6,40.4,34.0,96,76,47,30.39,30.27,4,0,5,0.00
2013-2-1,66.0,50.7,38.8,48.4,42.6,36.1,97,78,48,30.33,30.21,4,0,4,0.00
2013-2-2,59.0,49.6,43.5,49.8,44.9,40.3,95,87,73,30.39,30.33,4,0,4,0.00
2013-2-3,58.6,49.2,41.4,46.4,42.4,37.9,96,81,60,30.36,30.24,5,1,8,0.00
2013-2-4,57.6,48.6,40.5,48.6,44.4,36.9,97,89,74,30.30,30.18,4,0,6,0.00
2013-2-5,59.2,52.2,46.4,46.6,44.0,39.7,94,77,62,30.27,30.18,7,2,8,0.00
2013-2-6,59.9,47.4,37.4,45.5,38.9,33.8,94,76,53,30.30,30.24,6,1,8,0.00
2013-2-7,58.1,46.2,37.2,48.4,38.6,32.5,96,79,48,30.30,30.12,8,1,9,0.08
2013-2-8,54.5,45.5,38.1,44.8,38.8,33.4,96,81,57,30.12,30.06,6,1,8,0.04
2013-2-9,58.1,44.1,33.3,38.7,32.3,28.2,95,67,35,30.21,30.09,5,1,6,0.00
2013-2-10,60.4,44.8,32.9,38.5,33.1,27.7,88,68,38,30.24,30.12,6,1,8,0.00
2013-2-11,63.1,46.8,34.3,40.1,33.6,29.7,92,63,32,30.33,30.18,5,1,8,0.00
2013-2-12,61.5,46.6,34.9,43.3,36.1,29.1,89,71,41,30.45,30.36,5,1,6,0.00
2013-2-13,64.6,48.2,36.0,46.9,38.9,31.8,94,74,43,30.45,30.33,5,0,6,0.00
2013-2-14,69.1,51.8,37.9,47.5,39.9,34.0,95,67,36,30.36,30.24,5,1,8,0.00
2013-2-15,71.2,54.1,40.3,48.6,41.6,35.6,91,65,34,30.36,30.30,5,0,5,0.00
2013-2-16,68.9,53.8,41.5,50.5,43.4,37.0,90,71,47,30.33,30.15,4,0,5,0.00
2013-2-17,64.0,51.2,40.6,46.8,42.1,36.0,95,75,48,30.18,30.06,4,1,6,0.00
2013-2-18,56.8,47.2,37.4,45.7,38.2,33.4,95,75,53,30.15,30.09,7,2,8,0.00
2013-2-19,50.4,46.6,39.7,44.4,38.4,33.3,87,77,65,30.09,29.88,6,1,12,0.21
2013-2-20,60.1,45.2,33.3,41.4,35.9,30.2,95,74,42,30.18,29.94,7,1,10,0.00
2013-2-21,60.4,48.3,38.8,40.6,36.5,30.7,90,67,37,30.27,30.15,5,2,9,0.00
2013-2-22,63.7,48.4,35.2,43.0,36.2,29.7,89,66,36,30.36,30.27,5,1,8,0.00
2013-2-23,59.4,51.2,42.1,45.5,38.8,33.1,87,66,42,30.36,30.27,8,3,12,0.00
2013-2-24,63.1,49.7,38.5,37.6,32.4,27.9,75,52,28,30.36,30.27,5,1,11,0.00
2013-2-25,63.1,48.7,36.1,45.1,36.8,28.4,85,67,47,30.39,30.27,8,1,11,0.00
2013-2-26,66.9,49.9,36.3,41.2,35.3,29.3,92,60,27,30.33,30.24,6,1,6,0.00
2013-2-27,67.8,51.5,36.0,46.4,37.6,28.6,83,61,37,30.48,30.33,4,1,6,0.00
2013-2-28,68.5,54.2,41.9,52.0,44.9,37.2,90,74,51,30.56,30.48,7,1,10,0.00
2013-3-1,72.5,57.0,45.3,54.0,48.3,42.6,97,76,45,30.53,30.33,4,1,6,0.00
2013-3-2,69.8,58.0,48.0,54.7,48.8,43.9,93,74,50,30.36,30.15,4,0,5,0.00
2013-3-3,66.9,56.9,47.5,51.3,46.8,40.8,90,72,45,30.21,30.15,8,1,10,0.00
2013-3-4,59.5,51.3,43.5,46.2,42.1,37.4,88,75,57,30.27,30.18,7,1,10,0.00
2013-3-5,61.5,51.9,40.8,45.1,40.8,36.0,90,69,48,30.18,29.97,8,2,8,0.13
2013-3-6,61.0,52.9,43.0,48.7,41.9,36.3,92,69,46,30.18,29.97,7,2,10,0.29
2013-3-7,60.3,49.7,40.5,45.3,40.2,36.3,91,73,46,30.09,29.97,5,1,6,0.16
2013-3-8,61.5,52.1,46.2,46.9,43.0,39.2,96,75,47,30.18,29.94,10,3,14,0.04
2013-3-9,67.8,53.6,41.2,44.8,40.4,35.4,89,63,35,30.42,30.18,7,2,11,0.00
2013-3-10,70.0,53.8,38.8,46.9,40.2,34.2,88,62,29,30.45,30.36,5,1,8,0.00
2013-3-11,73.0,54.9,39.4,49.6,42.2,33.4,85,65,33,30.36,30.21,5,1,6,0.00
2013-3-12,72.7,56.5,43.7,53.6,47.0,38.7,93,74,44,30.27,30.15,5,1,5,0.00
2013-3-13,77.0,59.2,43.9,56.8,49.3,40.6,92,72,42,30.27,30.15,5,1,7,0.00
2013-3-14,72.7,58.6,47.3,54.5,47.7,42.1,92,70,32,30.27,30.18,8,1,8,0.00
2013-3-15,72.5,56.8,43.2,52.5,45.0,37.4,85,67,40,30.24,30.15,5,1,6,0.00
2013-3-16,74.3,58.7,48.4,54.3,46.8,39.9,92,67,31,30.21,30.12,8,2,10,0.00
2013-3-17,68.7,56.9,44.1,47.5,41.6,37.2,82,57,36,30.27,30.15,6,2,10,0.00
2013-3-18,67.1,54.9,41.7,50.5,43.0,36.0,86,67,50,30.24,30.12,4,0,6,0.00
2013-3-19,69.4,56.4,45.9,51.1,44.0,38.3,86,66,37,30.24,30.15,7,1,10,0.05
2013-3-20,68.9,58.9,52.0,55.6,51.3,47.5,95,79,59,30.24,30.18,6,2,8,0.00
2013-3-21,67.1,56.0,47.8,49.5,42.4,38.5,81,62,37,30.24,30.12,7,2,10,0.00
2013-3-22,69.6,54.2,39.9,43.0,38.0,31.8,89,55,24,30.21,30.12,7,2,10,0.00
2013-3-23,69.8,54.9,40.3,45.0,37.7,31.8,80,52,24,30.24,30.12,7,1,8,0.00
2013-3-24,70.5,55.5,41.5,49.8,42.1,34.2,82,63,37,30.18,30.06,5,1,8,0.00
2013-3-25,64.8,53.0,42.1,46.9,41.5,36.9,86,68,49,30.12,30.03,6,1,11,0.00
2013-3-26,67.8,56.2,46.0,48.9,43.8,39.2,86,65,47,30.12,30.03,7,1,8,0.00
2013-3-27,71.2,59.2,49.5,54.1,48.8,42.4,86,71,52,30.12,30.06,6,1,8,0.00
2013-3-28,72.3,62.3,55.6,57.0,53.5,49.8,94,76,55,30.18,30.09,8,1,9,0.00
2013-3-29,78.8,63.1,50.5,57.9,52.2,46.9,95,70,41,30.18,30.09,6,1,8,0.00
2013-3-30,71.4,61.9,55.9,56.8,52.7,50.5,89,75,46,30.18,30.06,6,1,8,0.03
2013-3-31,72.0,61.8,52.3,57.7,51.9,49.3,95,72,47,30.15,30.09,6,1,8,0.05
2013-4-1,71.8,62.0,53.4,61.7,52.3,46.2,95,73,48,30.24,30.15,6,1,8,0.16
2013-4-2,71.4,59.0,46.8,54.7,49.2,43.2,93,73,48,30.27,30.18,6,1,7,0.00
2013-4-3,77.9,61.8,53.2,57.4,50.8,47.1,87,69,38,30.24,30.06,6,1,6,0.00
2013-4-4,69.8,60.8,54.9,59.7,53.6,49.1,95,80,61,30.21,30.09,6,1,8,0.25
2013-4-5,69.8,61.5,53.8,55.0,51.4,46.8,92,72,50,30.30,30.24,7,1,9,0.00
2013-4-6,69.1,59.8,52.7,55.4,50.4,45.3,92,74,52,30.30,30.24,7,1,11,0.00
2013-4-7,70.7,59.6,52.3,55.0,49.2,44.2,88,71,46,30.30,29.97,10,2,10,0.00
2013-4-8,68.2,57.8,49.5,48.4,40.7,37.4,81,52,33,30.12,29.94,14,6,23,0.00
2013-4-9,75.9,61.7,46.4,49.6,42.4,36.7,76,46,25,30.18,30.12,10,3,17,0.00
2013-4-10,86.9,66.9,49.1,61.0,49.0,39.7,79,50,27,30.27,30.15,7,2,11,0.00
2013-4-11,75.2,63.0,51.8,50.7,45.7,39.4,72,52,31,30.18,29.94,7,2,8,0.00
2013-4-12,76.5,59.9,44.8,55.2,45.6,38.3,84,60,33,30.03,29.91,7,1,7,0.00
2013-4-13,72.0,58.9,47.1,52.2,43.5,37.4,83,57,35,30.00,29.94,8,2,13,0.00
2013-4-14,71.8,57.0,42.8,47.3,41.6,36.0,83,57,32,30.03,29.97,9,3,15,0.00
2013-4-15,62.2,54.3,47.8,46.8,39.0,33.8,79,57,37,30.06,29.97,12,5,15,0.00
2013-4-16,70.0,55.5,38.8,43.5,37.5,31.3,82,50,25,30.24,30.06,9,2,12,0.00
2013-4-17,71.6,59.5,45.3,44.2,38.1,32.9,69,40,23,30.36,30.24,12,3,13,0.00
2013-4-18,78.6,61.5,43.3,50.9,41.3,32.2,73,44,22,30.36,30.27,6,1,6,0.00
2013-4-19,82.6,64.6,46.8,57.7,47.1,37.2,79,52,29,30.33,30.18,9,2,11,0.00
2013-4-20,82.4,65.9,49.3,55.9,47.5,41.7,81,49,25,30.21,30.06,6,1,10,0.00
2013-4-21,86.9,68.2,48.9,58.5,50.1,41.5,82,50,20,30.15,30.00,7,1,8,0.00
2013-4-22,89.4,70.9,52.9,60.4,51.2,42.4,75,45,19,30.06,29.91,9,2,9,0.00
2013-4-23,84.4,67.1,51.6,55.9,47.5,42.1,75,46,19,30.03,29.94,6,2,8,0.00
2013-4-24,73.4,61.5,49.1,53.8,47.9,40.6,81,62,43,30.03,29.94,6,1,8,0.00
2013-4-25,74.5,62.3,51.4,55.4,49.3,45.3,83,64,44,30.24,30.03,6,1,9,0.00
2013-4-26,70.0,60.2,50.5,52.3,47.9,43.5,83,66,50,30.33,30.24,6,2,8,0.00
2013-4-27,73.8,60.6,50.2,55.4,49.4,43.9,85,69,47,30.33,30.18,6,1,7,0.00
2013-4-28,83.7,65.8,49.3,61.0,52.8,43.9,90,64,34,30.18,29.97,5,1,6,0.00
2013-4-29,91.9,72.8,55.2,64.9,55.1,47.5,84,51,21,30.00,29.85,6,1,8,0.00
2013-4-30,85.6,69.1,53.1,57.6,50.7,43.9,80,49,20,29.94,29.88,8,2,9,0.00
2013-5-1,87.4,70.4,50.9,57.9,47.5,36.0,61,36,18,30.18,29.94,9,2,10,0.00
2013-5-2,93.6,73.3,51.8,63.7,50.6,39.9,68,37,17,30.24,30.15,6,1,10,0.00
2013-5-3,92.3,73.0,53.2,62.6,49.5,37.2,57,35,17,30.18,29.88,6,2,9,0.00
2013-5-4,91.8,71.5,54.1,63.3,51.4,40.8,64,44,20,29.88,29.65,8,2,12,0.00
2013-5-5,73.8,64.9,58.1,53.2,48.2,44.2,65,54,42,29.88,29.71,10,3,10,0.00
2013-5-6,74.5,64.3,54.3,55.0,50.1,46.6,80,60,43,30.06,29.91,6,1,6,0.00
2013-5-7,75.9,65.1,55.6,55.2,50.5,45.9,81,60,40,30.15,30.06,6,1,8,0.00
2013-5-8,73.0,61.7,54.0,54.7,49.5,45.5,82,66,45,30.27,30.15,8,2,10,0.00
2013-5-9,73.0,61.9,52.7,54.1,48.9,45.1,81,64,44,30.30,30.18,8,2,8,0.00
2013-5-10,75.0,62.8,53.6,56.7,50.6,45.5,80,66,47,30.30,30.21,6,2,8,0.00
2013-5-11,82.6,67.4,55.9,62.4,54.9,47.7,84,65,41,30.27,30.15,5,1,6,0.00
2013-5-12,85.1,69.1,52.9,64.6,54.5,46.8,87,60,30,30.24,30.12,7,2,8,0.00
2013-5-13,81.9,66.2,51.1,61.3,51.7,44.4,83,60,37,30.21,30.06,7,2,9,0.00
2013-5-14,82.4,65.6,52.2,60.3,49.2,41.7,82,54,30,30.15,30.03,7,2,10,0.00
2013-5-15,74.5,61.9,49.1,50.7,45.6,40.6,78,55,34,30.18,30.12,8,2,11,0.00
2013-5-16,74.5,62.8,54.9,57.2,50.4,45.0,81,66,43,30.15,30.09,10,2,11,0.00
2013-5-17,73.2,61.4,50.0,50.9,46.5,41.4,84,59,35,30.21,30.09,10,3,14,0.00
2013-5-18,76.8,63.1,46.8,53.8,47.3,40.3,83,56,33,30.24,30.18,9,2,12,0.00
2013-5-19,86.4,68.9,50.7,59.4,48.7,40.8,76,44,21,30.21,30.06,8,2,10,0.00
2013-5-20,91.9,71.4,51.4,62.4,50.5,40.6,74,42,17,30.09,30.00,9,2,10,0.00
2013-5-21,75.0,63.1,54.5,52.5,45.6,36.9,72,51,31,30.12,30.03,10,3,13,0.00
2013-5-22,70.9,58.9,49.5,46.0,39.4,34.3,63,46,26,30.12,30.03,8,4,13,0.00
2013-5-23,72.3,60.2,49.3,49.5,42.3,36.9,70,50,33,30.12,30.03,8,2,10,0.00
2013-5-24,78.6,60.0,45.1,52.9,42.9,36.1,77,53,25,30.12,30.06,8,2,10,0.00
2013-5-25,72.5,59.9,47.3,49.8,44.8,39.0,80,58,35,30.18,30.09,8,2,11,0.00
2013-5-26,76.5,64.7,55.9,55.8,51.2,46.2,79,62,40,30.24,30.18,8,4,13,0.00
2013-5-27,72.1,63.5,54.5,55.9,51.8,46.0,82,67,51,30.24,30.12,7,2,8,0.00
2013-5-28,75.0,65.0,59.0,59.0,53.4,46.4,87,68,43,30.12,30.03,9,2,15,0.00
2013-5-29,73.4,64.7,56.8,56.7,49.8,43.2,71,59,44,30.09,30.03,9,3,13,0.00
2013-5-30,81.3,64.6,48.2,54.1,46.2,40.3,81,49,22,30.09,30.03,10,2,10,0.00
2013-5-31,92.3,70.7,49.1,63.5,50.9,39.6,76,45,19,30.12,30.00,7,2,8,0.00
2013-6-1,97.9,75.4,54.7,68.5,55.8,45.7,76,46,17,30.03,29.85,7,1,9,0.00
2013-6-2,83.1,69.5,56.8,60.8,53.5,47.1,74,56,36,29.88,29.77,5,1,6,0.00
2013-6-3,79.9,67.0,53.8,58.6,52.8,46.9,83,61,41,29.94,29.83,6,2,8,0.00
2013-6-4,78.8,66.5,57.7,58.6,53.3,49.6,83,63,43,30.06,29.94,8,1,8,0.00
2013-6-5,76.3,65.4,58.1,56.5,52.1,48.9,75,63,44,30.09,30.00,6,1,8,0.00
2013-6-6,77.4,66.2,59.4,58.6,53.6,49.6,79,65,46,30.06,29.94,8,2,8,0.00
2013-6-7,88.2,70.7,59.2,66.2,57.9,50.5,83,64,38,30.00,29.83,6,1,7,0.00
2013-6-8,87.1,72.0,59.2,66.6,58.5,53.4,84,63,39,29.88,29.80,5,1,8,0.00
2013-6-9,82.6,68.6,59.5,62.2,55.9,50.9,84,65,43,29.97,29.88,8,2,10,0.00
2013-6-10,78.8,66.9,58.8,57.9,52.4,48.6,74,60,41,30.03,29.94,7,2,12,0.00
2013-6-11,79.2,67.0,59.9,59.7,53.5,50.2,76,63,44,30.09,29.97,8,2,8,0.00
2013-6-12,83.7,67.0,51.4,57.0,49.6,40.5,83,52,23,30.12,30.00,9,2,11,0.00
2013-6-13,84.0,67.3,48.6,57.7,48.3,39.2,75,47,21,30.18,30.09,7,2,8,0.00
2013-6-14,90.7,71.7,52.2,61.9,51.7,43.5,77,44,18,30.09,29.91,8,2,8,0.00
2013-6-15,78.8,65.1,51.6,57.0,49.3,43.0,77,56,33,30.12,29.94,8,2,11,0.00
2013-6-16,83.3,67.2,51.3,60.1,51.4,44.8,83,56,33,30.18,30.12,9,2,11,0.00
2013-6-17,78.8,66.1,52.9,58.8,52.2,45.3,81,61,44,30.21,30.15,9,3,10,0.00
2013-6-18,74.5,64.3,53.2,53.8,50.5,47.5,86,62,40,30.15,30.12,10,3,12,0.00
2013-6-19,78.4,66.5,56.3,55.4,48.5,42.4,71,50,33,30.15,30.09,8,4,9,0.00
2013-6-20,85.1,66.0,49.8,58.5,48.4,41.5,80,51,23,30.12,30.03,9,2,10,0.00
2013-6-21,88.9,68.2,51.3,61.3,50.4,42.6,79,51,19,30.06,30.00,8,2,10,0.00
2013-6-22,92.8,70.9,52.9,64.6,53.0,44.2,79,50,20,30.03,29.94,6,2,11,0.00
2013-6-23,75.2,67.9,60.4,61.0,56.6,50.9,80,69,57,29.97,29.91,5,1,8,0.00
2013-6-24,68.7,65.1,62.4,61.7,59.4,57.0,91,84,76,30.00,29.88,4,0,4,0.04
2013-6-25,82.9,71.5,64.0,67.6,62.4,58.6,92,75,55,30.06,29.97,6,1,12,0.00
2013-6-26,87.8,75.1,65.5,68.7,62.6,57.2,86,65,42,30.15,30.06,8,2,13,0.00
2013-6-27,92.3,75.8,61.0,67.3,60.9,55.8,87,59,27,30.15,30.09,7,2,9,0.00
2013-6-28,101.3,80.1,61.0,73.9,62.8,53.8,82,52,20,30.12,29.97,8,2,10,0.00
2013-6-29,102.2,80.4,62.1,73.2,62.1,55.0,81,49,17,30.00,29.88,8,2,11,0.00
2013-6-30,93.7,76.8,61.9,68.5,60.1,53.6,78,53,28,29.94,29.85,9,2,15,0.00
2013-7-1,93.7,76.3,61.5,70.2,61.0,53.6,82,58,32,29.94,29.88,6,1,6,0.00
2013-7-2,91.0,75.5,66.0,69.8,61.5,56.8,78,61,40,30.00,29.91,5,2,7,0.00
2013-7-3,91.0,75.2,63.9,69.3,61.7,56.8,82,62,39,30.00,29.85,7,1,8,0.00
2013-7-4,94.3,78.7,66.7,70.0,62.0,52.3,80,53,27,29.85,29.77,8,2,9,0.00
2013-7-5,83.5,71.2,59.4,61.3,54.1,48.6,73,53,35,29.88,29.80,5,1,6,0.00
2013-7-6,83.8,67.8,55.8,61.9,53.2,48.0,80,59,38,29.88,29.80,6,1,6,0.00
2013-7-7,81.1,69.6,61.5,61.0,55.3,50.7,73,60,41,29.94,29.85,8,2,9,0.00
2013-7-8,81.3,68.4,60.4,61.2,56.0,51.6,79,66,44,30.06,29.94,6,1,8,0.00
2013-7-9,87.6,72.3,59.7,65.7,59.3,53.2,84,64,38,30.12,30.00,5,1,6,0.00
2013-7-10,81.7,68.4,57.6,61.2,55.8,51.1,83,65,42,30.06,29.97,6,2,10,0.00
2013-7-11,79.5,67.9,60.8,59.4,54.7,50.7,79,63,42,30.03,29.94,7,2,7,0.00
2013-7-12,83.1,68.6,60.1,60.6,55.0,50.0,78,62,31,30.03,29.94,5,1,8,0.00
2013-7-13,84.6,68.8,53.6,62.2,55.2,47.8,87,62,34,30.06,29.97,6,1,8,0.00
2013-7-14,79.3,66.8,55.6,59.4,54.4,48.7,84,66,43,30.09,29.97,6,2,7,0.00
2013-7-15,79.3,66.2,59.4,59.5,53.1,49.6,80,64,42,30.00,29.91,7,1,8,0.00
2013-7-16,76.6,66.7,58.8,57.2,53.1,50.0,78,62,45,30.12,29.94,8,2,13,0.00
2013-7-17,79.0,67.2,59.4,60.1,54.5,50.7,78,65,44,30.18,30.09,7,2,8,0.00
2013-7-18,82.8,69.0,57.9,62.4,55.9,50.4,82,64,34,30.15,30.00,5,1,8,0.00
2013-7-19,81.9,68.4,58.8,61.7,55.8,50.7,83,65,42,30.06,29.91,6,2,8,0.00
2013-7-20,82.8,67.6,58.8,62.6,55.6,50.4,82,67,44,29.94,29.83,6,1,8,0.00
2013-7-21,79.9,68.0,59.7,61.2,55.8,51.6,83,66,46,29.94,29.85,7,2,9,0.00
2013-7-22,78.8,68.6,60.1,62.6,57.9,52.9,84,70,52,30.03,29.94,6,1,8,0.00
2013-7-23,80.2,70.5,63.5,64.0,59.1,55.9,84,68,47,30.09,30.03,6,1,8,0.00
2013-7-24,83.5,71.5,60.8,64.8,59.2,55.2,87,66,40,30.06,29.97,6,1,7,0.00
2013-7-25,80.1,68.6,57.6,61.7,57.0,52.3,88,68,45,30.12,30.00,6,1,6,0.00
2013-7-26,79.2,68.7,61.9,61.7,57.2,54.0,83,68,49,30.18,30.09,6,2,7,0.00
2013-7-27,77.0,68.2,61.7,62.4,57.3,52.9,83,70,53,30.12,29.94,7,2,8,0.00
2013-7-28,78.4,68.2,61.5,60.1,56.0,50.7,83,66,46,29.97,29.88,5,2,8,0.00
2013-7-29,80.1,67.3,54.3,59.5,53.4,48.0,84,62,42,30.09,29.91,5,1,8,0.00
2013-7-30,77.2,67.6,60.1,59.5,54.3,50.0,76,63,48,30.18,30.09,6,2,9,0.00
2013-7-31,82.0,68.6,58.8,59.0,53.6,47.1,79,58,33,30.18,30.09,8,2,9,0.00
2013-8-1,82.6,66.8,51.6,58.3,51.0,45.3,84,56,31,30.15,30.06,8,2,8,0.00
2013-8-2,82.9,66.7,51.8,59.5,52.1,45.3,83,60,31,30.06,29.97,5,1,8,0.00
2013-8-3,78.3,67.1,59.2,59.2,53.7,48.7,76,63,45,30.06,29.97,8,2,8,0.00
2013-8-4,77.4,66.6,60.4,58.6,54.2,50.4,80,66,44,30.09,30.00,5,1,8,0.00
2013-8-5,76.8,66.5,60.8,58.6,54.0,50.9,77,65,45,30.12,30.00,6,1,8,0.00
2013-8-6,81.9,67.6,60.3,61.0,54.4,51.1,77,63,40,30.12,30.06,7,1,8,0.00
2013-8-7,82.8,69.6,61.2,61.2,55.3,51.4,78,60,40,30.18,30.09,6,1,6,0.00
2013-8-8,77.2,66.2,58.1,59.4,54.3,49.8,80,67,48,30.12,30.00,8,2,10,0.00
2013-8-9,80.8,66.8,54.5,60.8,54.4,48.7,85,66,44,30.09,30.00,9,1,10,0.00
2013-8-10,80.8,68.6,61.0,63.1,56.1,52.2,78,65,43,30.12,30.06,7,2,8,0.00
2013-8-11,78.8,68.4,60.6,61.0,56.3,52.2,81,66,48,30.12,30.00,5,2,8,0.00
2013-8-12,87.8,70.5,61.5,62.4,57.6,53.4,84,64,26,30.06,30.00,8,2,9,0.00
2013-8-13,89.8,71.4,57.0,65.5,57.2,50.9,90,60,28,30.06,29.97,6,1,8,0.00
2013-8-14,84.6,69.4,55.8,61.5,55.9,48.9,83,62,32,30.06,30.00,8,2,11,0.00
2013-8-15,87.1,72.6,58.5,68.2,61.5,54.1,90,69,47,30.06,29.97,7,2,9,0.00
2013-8-16,88.7,74.3,65.3,67.1,60.9,49.8,90,63,27,30.06,30.00,8,2,8,0.00
2013-8-17,83.8,69.0,59.0,64.0,56.4,49.6,77,65,42,30.09,29.97,8,1,9,0.00
2013-8-18,90.1,74.2,61.5,68.9,61.5,55.2,89,65,40,29.97,29.83,4,1,6,0.00
2013-8-19,85.6,73.6,63.1,66.4,61.0,56.7,83,65,42,29.97,29.85,6,1,7,0.00
2013-8-20,81.9,71.7,63.7,63.0,59.0,52.9,85,65,33,29.97,29.88,7,1,10,0.00
2013-8-21,77.0,68.5,61.7,60.4,56.2,52.3,80,66,48,30.00,29.91,6,1,8,0.00
2013-8-22,79.7,68.1,59.4,59.9,55.2,51.6,81,64,44,30.06,29.94,6,1,7,0.00
2013-8-23,78.8,67.7,58.8,59.0,54.3,49.6,78,63,42,30.00,29.88,7,2,8,0.00
2013-8-24,84.2,68.6,54.5,63.0,56.2,48.7,86,65,40,29.97,29.94,8,2,11,0.00
2013-8-25,81.9,71.6,64.6,65.8,60.5,55.2,87,69,46,30.03,29.94,7,2,10,0.00
2013-8-26,81.3,68.2,60.6,62.1,55.9,48.6,80,66,43,30.09,29.97,6,1,6,0.00
2013-8-27,85.6,67.3,54.1,62.8,54.4,47.3,84,64,35,30.00,29.88,8,2,8,0.00
2013-8-28,84.7,68.8,56.3,66.7,58.4,51.1,91,71,47,30.03,29.94,6,1,10,0.00
2013-8-29,83.8,71.3,65.7,65.1,60.5,57.0,83,70,42,30.12,30.00,6,2,6,0.00
2013-8-30,91.9,72.8,61.0,68.0,60.4,52.3,92,65,29,30.12,29.97,5,1,8,0.00
2013-8-31,84.0,70.5,57.2,63.1,56.4,50.4,83,61,33,30.06,29.94,6,2,7,0.00
2013-9-1,81.3,70.4,63.0,62.2,58.0,54.7,83,66,41,30.03,29.94,6,1,8,0.00
2013-9-2,79.3,71.6,66.4,65.5,60.9,58.5,81,70,51,30.03,29.94,8,2,9,0.00
2013-9-3,82.6,69.5,56.7,60.8,55.9,52.0,88,62,34,30.09,30.00,8,2,10,0.00
2013-9-4,81.7,68.5,56.1,61.0,55.5,51.3,90,64,37,30.24,30.03,9,3,10,0.00
2013-9-5,80.6,69.1,57.7,62.2,55.7,49.6,91,63,42,30.18,30.03,8,2,11,0.00
2013-9-6,91.4,71.8,53.2,65.3,55.3,47.5,88,54,24,30.27,29.88,7,1,7,0.00
2013-9-7,94.5,75.2,57.9,66.0,56.6,48.0,75,49,19,30.12,29.85,7,1,8,0.00
2013-9-8,85.3,70.5,57.9,65.5,58.3,51.8,84,66,42,30.24,29.83,6,1,6,0.00
2013-9-9,85.8,70.2,58.1,65.8,59.4,54.0,89,70,41,30.56,29.83,4,1,6,0.00
2013-9-10,83.8,69.8,60.4,64.0,59.1,54.1,90,70,43,30.42,29.91,6,1,6,0.00
2013-9-11,79.3,67.8,57.6,61.3,56.3,52.2,87,68,47,31.07,30.21,5,1,7,0.00
2013-9-12,77.2,67.9,60.1,62.4,57.8,53.8,84,72,53,31.04,30.15,8,1,8,0.00
2013-9-13,79.2,67.2,60.1,61.9,55.9,51.8,85,69,42,31.15,30.21,6,1,10,0.00
2013-9-14,75.4,64.9,57.0,58.8,54.0,50.2,84,70,47,31.27,30.53,8,2,10,0.00
2013-9-15,80.2,65.5,53.4,60.8,55.0,48.0,90,71,44,31.27,30.53,8,1,10,0.00
2013-9-16,83.3,67.2,56.8,62.4,56.4,50.7,92,70,37,31.27,30.48,8,2,10,0.00
2013-9-17,75.2,65.9,58.3,57.0,53.1,48.9,83,65,40,31.27,30.89,11,3,13,0.00
2013-9-18,84.6,66.6,52.2,57.4,51.1,45.1,89,57,23,31.27,30.83,7,1,7,0.00
2013-9-19,88.2,67.6,50.4,61.5,50.5,41.7,81,52,22,31.27,30.48,7,1,8,0.00
2013-9-20,76.3,65.0,51.4,60.6,53.4,43.3,79,68,55,31.27,31.12,8,2,14,0.00
2013-9-21,68.0,64.0,57.4,61.5,57.2,53.4,89,81,70,31.27,31.27,5,1,8,0.38
2013-9-22,74.5,62.3,51.4,57.4,52.8,49.6,96,73,42,31.27,31.27,8,2,10,0.00
2013-9-23,81.9,66.2,52.7,59.9,54.3,48.7,92,67,38,31.27,31.27,6,1,8,0.00
2013-9-24,75.9,65.7,57.6,55.9,52.3,47.3,86,63,42,31.27,31.27,9,3,13,0.00
2013-9-25,70.5,62.4,56.8,49.8,46.9,43.7,74,57,38,31.27,31.27,9,4,12,0.00
2013-9-26,75.7,60.4,46.8,49.8,43.8,38.8,84,54,25,31.27,31.27,8,2,9,0.00
2013-9-27,78.3,61.4,46.9,50.9,43.4,38.1,79,50,23,31.27,31.27,7,1,7,0.00
2013-9-28,81.9,63.4,47.5,56.8,46.3,37.0,75,53,23,31.27,31.27,6,1,8,0.00
2013-9-29,77.0,64.9,52.7,60.3,53.9,47.3,87,69,51,31.27,31.27,8,1,9,0.00
2013-9-30,77.0,66.7,57.9,62.2,57.0,44.8,93,73,53,31.27,31.27,6,1,8,0.00
2013-10-1,74.3,62.2,51.8,53.8,48.3,43.2,85,62,40,31.27,31.27,7,1,8,0.00
2013-10-2,77.4,60.8,49.8,56.1,47.2,39.6,87,62,30,31.27,31.27,6,1,8,0.00
2013-10-3,73.4,60.1,46.4,47.7,42.5,38.8,82,51,27,31.27,31.27,7,2,10,0.00
2013-10-4,79.9,66.2,52.3,51.4,42.4,35.1,55,34,21,31.27,31.27,6,2,10,0.00
2013-10-5,83.8,64.2,48.2,55.0,42.3,33.4,62,39,19,31.27,31.27,4,1,6,0.00
2013-10-6,83.8,63.9,47.5,55.9,43.5,33.8,64,43,21,31.27,31.27,5,0,6,0.00
2013-10-7,81.9,64.2,49.3,54.5,43.1,35.1,64,41,20,31.27,31.27,6,1,8,0.00
2013-10-8,75.9,60.1,47.5,52.5,43.7,34.9,77,55,33,32.01,27.79,5,1,6,0.00
2013-10-9,69.8,57.3,47.1,48.7,43.7,39.6,85,62,37,32.39,25.54,5,1,6,0.00
2013-10-10,72.0,57.8,46.9,51.8,44.8,38.3,81,64,42,30.89,25.54,4,1,6,0.00
2013-10-11,66.7,57.3,49.8,53.2,48.1,43.5,86,74,57,25.54,25.54,5,1,8,0.00
2013-10-12,70.5,56.7,45.5,54.1,46.6,40.8,92,72,38,25.54,25.54,6,1,10,0.00
2013-10-13,73.0,58.2,46.4,51.3,45.1,39.0,90,64,34,25.54,25.54,5,1,6,0.00
2013-10-14,77.0,59.0,44.2,51.3,42.7,36.5,81,55,25,25.54,25.54,5,1,8,0.00
2013-10-15,78.8,60.4,46.0,51.3,42.1,36.3,76,49,23,25.54,25.54,4,1,8,0.00
2013-10-16,80.4,60.9,46.0,53.1,41.8,34.9,73,47,22,25.54,25.54,5,0,6,0.00
2013-10-17,79.5,60.6,46.4,52.2,41.6,34.5,72,47,22,25.54,25.54,5,1,9,0.00
2013-10-18,75.4,58.3,44.6,55.6,44.2,33.4,81,61,40,25.54,25.54,4,0,6,0.00
2013-10-19,77.9,59.5,46.0,56.7,48.4,40.8,93,69,35,25.54,25.54,4,0,5,0.00
2013-10-20,70.7,56.2,45.3,57.0,47.8,40.3,94,77,51,25.54,25.54,4,0,6,0.00
2013-10-21,67.5,56.1,46.4,54.0,48.7,41.7,94,79,56,25.54,25.54,5,1,6,0.00
2013-10-22,69.8,56.4,46.2,56.1,49.5,41.9,96,81,60,25.54,25.54,4,0,5,0.00
2013-10-23,65.8,55.7,48.0,55.0,50.1,43.5,95,84,65,25.54,25.54,4,0,6,0.00
2013-10-24,62.4,55.5,47.8,50.7,48.5,43.5,89,81,64,25.54,25.54,4,1,6,0.00
2013-10-25,68.2,54.3,44.1,53.4,47.1,41.0,96,80,55,25.54,25.54,4,0,6,0.00
2013-10-26,74.3,56.7,44.4,56.5,48.4,41.5,97,77,45,25.54,25.54,4,0,5,0.00
2013-10-27,64.2,53.7,43.5,52.0,45.8,39.6,95,78,55,25.54,25.54,14,3,25,0.00
2013-10-28,58.1,56.3,54.5,49.1,46.3,44.2,82,72,68,29.97,25.54,11,3,15,0.00
2013-10-29,63.0,56.1,47.3,50.9,46.6,41.0,89,74,52,30.15,29.97,5,0,6,0.00
2013-10-30,67.1,52.9,42.3,50.0,43.5,38.7,93,74,43,30.24,30.15,5,1,6,0.00
2013-10-31,71.4,54.6,42.3,49.5,43.7,37.9,92,70,37,30.27,30.15,5,0,6,0.00
2013-11-1,72.9,56.0,43.3,50.2,44.0,38.7,91,67,35,30.24,30.09,4,0,6,0.00
2013-11-2,68.5,54.8,44.2,52.9,45.5,39.2,91,74,50,30.12,30.03,6,1,8,0.00
2013-11-3,65.3,52.2,41.0,46.6,39.0,34.9,95,63,31,30.15,30.03,8,1,10,0.00
2013-11-4,67.1,51.2,38.7,42.3,35.9,31.5,86,57,30,30.15,30.00,8,1,8,0.00
2013-11-5,71.1,54.0,40.8,45.7,37.8,31.8,79,55,28,30.33,30.18,5,0,5,0.00
2013-11-6,71.2,55.8,43.2,47.1,40.5,34.7,82,58,32,30.36,30.27,3,0,5,0.00
2013-11-7,71.1,56.7,47.1,48.7,43.3,37.8,76,63,36,30.27,30.18,4,0,4,0.00
2013-11-8,70.0,55.2,44.8,54.5,45.6,39.4,95,73,44,30.18,30.06,4,1,8,0.00
2013-11-9,68.4,53.6,42.8,52.7,45.1,38.7,94,76,49,30.15,30.06,4,0,5,0.00
2013-11-10,63.7,51.8,42.4,51.8,45.9,39.2,96,84,65,30.21,30.12,4,0,5,0.00
2013-11-11,65.8,57.1,48.7,52.3,50.3,46.2,94,81,60,30.27,30.15,3,0,5,0.00
2013-11-12,70.5,58.9,49.6,53.8,49.2,42.1,89,73,46,30.36,30.24,5,0,5,0.00
2013-11-13,71.6,56.4,45.7,54.7,48.1,41.9,95,77,48,30.36,30.21,4,0,6,0.00
2013-11-14,64.4,55.3,48.7,54.1,49.6,43.2,95,84,65,30.21,30.00,4,0,8,0.00
2013-11-15,65.3,51.8,42.4,47.5,41.0,35.6,93,70,38,30.00,29.83,5,1,6,0.00
2013-11-16,63.1,50.2,40.1,47.3,41.6,35.2,93,76,50,30.03,29.88,8,1,8,0.00
2013-11-17,61.5,50.3,41.4,50.5,43.0,38.1,97,80,57,30.18,30.03,5,1,8,0.00
2013-11-18,62.1,50.7,41.2,48.7,43.3,37.9,95,80,58,30.24,30.18,4,0,6,0.00
2013-11-19,63.1,55.8,48.0,56.5,51.3,43.2,97,87,67,30.21,30.03,4,0,4,0.37
2013-11-20,63.0,56.0,49.8,61.2,54.7,48.4,98,96,91,30.03,29.97,0,0,0,0.50
2013-11-21,59.2,53.7,50.5,53.2,43.6,31.1,98,72,37,30.09,30.00,5,1,10,0.00
2013-11-22,63.3,49.4,39.2,37.0,31.8,28.9,76,51,27,30.12,30.00,6,1,8,0.00
2013-11-23,63.9,46.7,39.2,40.1,34.9,30.2,81,67,34,30.21,30.06,0,0,0,0.00
2013-11-24,62.8,47.6,38.5,45.9,38.8,33.8,91,75,46,30.36,30.21,4,0,5,0.00
2013-11-25,63.0,47.6,38.3,46.2,39.5,34.2,95,77,46,30.42,30.36,4,0,4,0.00
2013-11-26,60.6,47.2,41.4,47.3,41.2,37.4,94,83,57,30.36,30.12,0,0,0,0.00
2013-11-27,64.2,49.8,40.8,48.0,42.6,37.2,95,80,51,30.12,29.94,0,0,4,0.00
2013-11-28,65.7,49.7,45.3,49.5,42.8,39.4,93,81,45,30.18,29.97,0,0,0,0.00
2013-11-29,66.0,48.5,41.0,48.9,41.1,37.2,94,79,45,30.33,30.18,4,0,6,0.00
2013-11-30,64.2,49.9,40.6,50.7,42.5,36.3,94,80,53,30.36,30.30,3,0,5,0.00
2013-12-1,66.2,51.4,40.5,51.6,43.7,37.2,96,78,52,30.45,30.30,4,0,4,0.00
2013-12-2,63.9,51.2,40.3,52.7,45.1,37.2,98,83,60,30.33,30.09,5,0,6,0.00
2013-12-3,56.7,50.4,37.8,51.8,38.5,30.2,97,67,44,30.09,29.97,9,2,12,0.00
2013-12-4,51.4,45.0,31.8,32.4,27.9,25.2,85,53,37,30.18,30.03,5,1,5,0.00
2013-12-5,50.4,44.1,28.0,27.1,24.4,19.0,77,45,32,30.27,30.21,5,1,6,0.00
2013-12-6,54.0,47.7,32.2,41.2,34.2,26.8,87,62,46,30.30,30.12,4,1,5,0.04
2013-12-7,50.0,44.5,36.0,45.5,31.9,24.6,93,65,41,30.30,30.03,9,3,10,0.08
2013-12-8,46.4,38.4,29.5,30.9,23.6,19.6,88,59,41,30.42,30.33,6,1,6,0.00
2013-12-9,50.2,36.1,27.1,27.1,21.4,18.7,77,59,35,30.50,30.42,5,0,6,0.00
2013-12-10,52.2,38.0,27.7,31.3,25.4,19.9,83,65,42,30.50,30.30,4,0,4,0.00
2013-12-11,55.4,40.5,30.7,33.1,27.8,24.3,84,65,37,30.36,30.27,4,0,4,0.00
2013-12-12,58.1,41.5,30.6,37.4,30.2,24.4,86,69,38,30.36,30.27,3,0,3,0.00
2013-12-13,57.2,42.6,32.5,42.6,33.5,27.7,91,75,47,30.45,30.33,4,0,6,0.00
2013-12-14,60.1,43.8,33.3,43.2,33.5,28.4,95,71,41,30.50,30.39,3,0,4,0.00
2013-12-15,60.6,44.4,33.3,40.8,34.0,28.4,92,71,44,30.48,30.33,4,0,4,0.00
2013-12-16,65.7,48.0,36.7,42.6,35.7,30.7,87,66,35,30.33,30.21,4,0,5,0.00
2013-12-17,63.5,48.7,38.1,43.3,37.7,32.4,86,70,44,30.27,30.12,0,0,0,0.00
2013-12-18,59.4,48.1,39.0,46.9,40.9,34.5,90,80,64,30.12,29.88,4,0,4,0.00
2013-12-19,58.5,48.2,40.3,43.3,36.7,26.2,91,68,40,30.03,29.83,9,2,10,0.00
2013-12-20,59.5,44.1,32.5,32.5,26.8,23.4,76,52,25,30.12,30.03,5,0,6,0.00
2013-12-21,60.4,46.4,36.5,47.5,36.8,24.4,87,73,59,30.18,30.06,6,1,6,0.00
2013-12-22,65.5,48.9,37.6,48.7,38.4,33.6,95,71,36,30.39,30.18,4,0,4,0.00
2013-12-23,61.2,47.2,37.4,45.1,37.8,32.7,92,74,47,30.48,30.39,4,0,6,0.00
2013-12-24,67.5,48.9,37.9,46.9,38.7,33.4,93,72,40,30.45,30.30,4,0,4,0.00
2013-12-25,63.5,47.1,36.1,43.5,36.7,31.3,91,71,44,30.39,30.27,0,0,0,0.00
2013-12-26,65.3,47.0,35.8,44.4,36.6,30.7,92,71,40,30.36,30.27,4,0,4,0.00
2013-12-27,60.1,45.9,35.4,43.7,37.4,30.6,88,76,51,30.33,30.21,2,0,3,0.00
2013-12-28,63.0,45.8,34.5,45.5,34.2,28.2,96,68,35,30.24,30.12,5,0,6,0.00
2013-12-29,64.8,47.0,36.0,38.5,30.9,25.7,76,55,27,30.27,30.18,3,0,6,0.00
2013-12-30,62.2,45.4,34.3,40.3,31.7,25.3,79,62,37,30.36,30.27,4,0,6,0.00
2013-12-31,58.6,44.5,35.4,45.1,35.8,27.7,89,76,58,30.36,30.24,4,0,5,0.00
2014-1-1,59.9,45.0,33.8,44.4,36.4,28.8,92,76,55,30.30,30.21,4,0,4,0.00
2014-1-2,64.6,48.0,36.3,43.2,36.1,31.1,89,67,39,30.27,30.15,4,0,4,0.05